Regional Weather Roundup
Issued by NWS

Home | Current Version | Previous Version | Graphics & Text | Print | Product List | Glossary On
Versions: 1 2 3 4 5 6 7 8 9 10 11 12 13 14 15 16 17 18 19 20 21 22 23 24 25 26 27 28 29 30 31 32 33 34 35 36 37 38 39 40 41 42 43 44 45 46 47 48 49 50
000
ASUS43 KFSD 031302
RWRSD

WEATHER ROUNDUP FOR SOUTH DAKOTA
NATIONAL WEATHER SERVICE SIOUX FALLS SD
800 AM CDT TUE MAY 03 2016

NOTE: "FAIR" INDICATES FEW OR NO CLOUDS BELOW 12,000 FEET WITH NO
SIGNIFICANT WEATHER AND/OR OBSTRUCTIONS TO VISIBILITY.


SDZ001>005-009-010-012>017-031400-
NORTHWEST AND NORTH CENTRAL SOUTH DAKOTA

CITY           SKY/WX    TMP DP  RH WIND       PRES   REMARKS
BUFFALO          N/A     41  33  73 W5        30.01R
FAITH            N/A     45  38  76 NW9       30.05R
MOBRIDGE       FAIR      47  44  90 CALM      30.00R
$$

SDZ012>016-024>037-041>051-057-063-072>074-031400-
SOUTHWEST AND SOUTH CENTRAL SOUTH DAKOTA

CITY           SKY/WX    TMP DP  RH WIND       PRES   REMARKS
RAPID CTY ARPT FAIR      45  34  65 NW9       30.09R
PIERRE         FAIR      41  39  93 SW5       30.04R
CUSTER         FAIR      46  29  51 CALM      30.14R
PHILIP         FAIR      39  38  96 W5        30.07R
PINE RIDGE     FAIR      31  31 100 CALM      30.11R
WINNER         FAIR      45  39  79 W6        30.07R
$$

SDZ004>011-016>023-039-040-031400-
NORTHEAST SOUTH DAKOTA

CITY           SKY/WX    TMP DP  RH WIND       PRES   REMARKS
ABERDEEN       FAIR      41  38  89 SW6       29.99F
WATERTOWN      FAIR      46  41  82 SW3       29.99F
BROOKINGS      FAIR      43  40  89 CALM      30.01S
SISSETON         N/A     52  43  71 W7        29.95F
$$

SDZ017-020-022-023-036>040-048>070-031400-
SOUTHEAST SOUTH DAKOTA

CITY           SKY/WX    TMP DP  RH WIND       PRES   REMARKS
SIOUX FALLS    FAIR      47  41  80 W3        30.03R
HURON          FAIR      45  42  89 MISG      30.03R
MITCHELL       FAIR      47  44  90 W8        30.05R
YANKTON        FAIR      48  45  87 NW7       30.04S
$$

ABBREVIATIONS USED IN REMARKS
   TC - TEMPERATURE IN CELSIUS
  WCI - WIND CHILL INDEX
   HX - HEAT INDEX
  VSB - VISIBILITY





USA.gov is the U.S. government's official web portal to all federal, state and local government web resources and services.